Overview Statistics Trail Chart Weather Telemetry Raw packets
 

This is the latest recevied weather packets stored in our database for station/object N0NB. If no packets are shown the sender has not sent any weather packets the latest 10 day(s).

<< 23 24 25 26 27 28 29 >>
Time Temp. Humidity Pressure Rain* Wind** Luminosity Snow
1788297316 36.11° C 37% 1011.2 hPa 0 mm - 572 W/m² -
1788296716 36.11° C 38% 1011.3 hPa 0 mm - 592 W/m² -
1788296116 36.11° C 39% 1011.3 hPa 0 mm - 612 W/m² -
1788295516 36.11° C 37% 1011.5 hPa 0 mm - 635 W/m² -
1788294916 36.11° C 40% 1011.6 hPa 0 mm - 654 W/m² -
1788294316 36.11° C 38% 1011.6 hPa 0 mm - 669 W/m² -
1788293716 36.11° C 40% 1011.7 hPa 0 mm - 684 W/m² -
1788293116 36.11° C 42% 1011.8 hPa 0 mm - 702 W/m² -
1788292516 35.56° C 41% 1011.9 hPa 0 mm - 712 W/m² -
1788291916 35.56° C 41% 1012 hPa 0 mm - 723 W/m² -
1788291316 35.56° C 41% 1012.1 hPa 0 mm - 736 W/m² -
1788290716 35.56° C 43% 1012.2 hPa 0 mm - 743 W/m² -
1788290116 35° C 40% 1012.2 hPa 0 mm - 749 W/m² -
1788289516 35° C 43% 1012.3 hPa 0 mm - 755 W/m² -
1788288916 35° C 42% 1012.2 hPa 0 mm - 762 W/m² -
1788288316 35° C 43% 1012.3 hPa 0 mm - 765 W/m² -
1788287716 34.44° C 44% 1012.4 hPa 0 mm - 767 W/m² -
1788287116 34.44° C 44% 1012.4 hPa 0 mm - 766 W/m² -
1788286516 33.89° C 46% 1012.7 hPa 0 mm - 764 W/m² -
1788285916 33.89° C 48% 1012.8 hPa 0 mm - 760 W/m² -
1788285316 33.33° C 47% 1012.8 hPa 0 mm - 754 W/m² -
1788284716 33.33° C 46% 1012.9 hPa 0 mm - 748 W/m² -
1788284116 33.33° C 50% 1013 hPa 0 mm - 739 W/m² -
1788283516 32.78° C 48% 1013 hPa 0 mm - 730 W/m² -
1788282916 32.78° C 50% 1013.1 hPa 0 mm - 719 W/m² -

* Rain latest hour (hover to see other rain measurements)
** Current wind speed in m/s (hover to see current wind gust speed)